This demonstration page uses our WeatherBlox Daily Observations layout. Learn more.

Left ArrowRight Arrow

Hourly Observations for September 8, 2021

Temp ( °F °C ) Dew Point ( °F °C ) Humidity (%) Winds ( mph kmh ) Pressure ( in mb ) Visibility ( mi km ) Precip ( " mm )
12:54 am 00:54 Clear 57 13.9 52 11.1 83 83 N 5 7 30.03 1017 10 16 N/A
1:54 am 01:54 Clear 57 13.9 52 11.1 83 83 N N/A 30.03 1017 10 16 N/A
2:54 am 02:54 Clear 56 13.3 52 11.1 87 87 N N/A 30.04 1017 10 16 N/A
3:54 am 03:54 Clear 55 12.8 49 9.4 80 80 N N/A 30.04 1017 10 16 N/A
4:54 am 04:54 Clear 53 11.7 48 8.9 83 83 N 3 6 30.04 1017 10 16 N/A
5:54 am 05:54 Clear 54 12.2 48 8.9 80 80 N N/A 30.05 1018 10 16 N/A
6:54 am 06:54 Clear 58 14.4 48 8.9 70 70 N N/A 30.06 1018 10 16 N/A
7:54 am 07:54 Sunny 58 14.4 51 10.6 78 78 N N/A 30.07 1018 10 16 N/A
8:54 am 08:54 Sunny 66 18.9 51 10.6 59 59 N N/A 30.07 1018 10 16 N/A
9:54 am 09:54 Sunny 72 22.2 53 11.7 52 52 N N/A 30.07 1018 10 16 N/A
10:54 am 10:54 Sunny 77 25 50 10 39 39 NW 7 11 30.08 1019 10 16 N/A
11:54 am 11:54 Sunny 81 27.2 48 8.9 32 32 NW 10 17 30.07 1018 10 16 N/A
12:54 pm 12:54 Sunny 83 28.3 45 7.2 26 26 NNW 14 22 30.06 1018 10 16 N/A
1:54 pm 13:54 Sunny 84 28.9 45 7.2 25 25 NW 6 9 30.04 1017 10 16 N/A
2:54 pm 14:54 Sunny 85 29.4 45 7.2 25 25 NNW 12 19 30.02 1017 10 16 N/A
3:54 pm 15:54 Sunny 85 29.4 48 8.9 28 28 NW 12 19 30.01 1016 10 16 N/A
4:54 pm 16:54 Sunny 84 28.9 47 8.3 27 27 WNW 12 19 30.00 1016 10 16 N/A
5:54 pm 17:54 Sunny 83 28.3 48 8.9 30 30 N 9 15 29.99 1016 10 16 N/A
6:54 pm 18:54 Sunny 79 26.1 52 11.1 39 39 N 7 11 29.99 1016 10 16 N/A
7:54 pm 19:54 Clear 70 21.1 53 11.7 55 55 NE 8 13 30.01 1016 10 16 N/A
8:54 pm 20:54 Cloudy 70 21.1 53 11.7 55 55 N 6 9 30.02 1017 10 16 N/A
9:54 pm 21:54 Partly Cloudy 67 19.4 54 12.2 63 63 N N/A 30.03 1017 10 16 N/A
10:54 pm 22:54 Partly Cloudy 61 16.1 55 12.8 81 81 N 8 13 30.04 1017 10 16 N/A
11:54 pm 23:54 Mostly Clear 60 15.6 55 12.8 84 84 N N/A 30.04 1017 10 16 N/A

Powered by AerisWeather